Regional Weather Roundup
Issued by NWS Upton, NY

Current Version | Previous Version | Graphics & Text | Print | Product List | Glossary Off
Versions: 1 2 3 4 5 6 7 8 9 10 11 12 13 14 15 16 17 18 19 20 21 22 23 24 25 26 27 28 29

000
ASUS41 KOKX 010505
RWROKX

REGIONAL WEATHER ROUNDUP
NATIONAL WEATHER SERVICE NEW YORK NY
100 AM EDT SAT NOV 01 2014

NOTE: "FAIR" INDICATES FEW OR NO CLOUDS BELOW 12,000 FEET WITH NO
SIGNIFICANT WEATHER AND/OR OBSTRUCTIONS TO VISIBILITY.

NYZ071-072-176-178-NJZ106-104-010600-
NEW YORK CITY METRO AREA


CITY           SKY/WX    TMP DP  RH WIND       PRES   REMARKS
CENTRAL PARK   CLOUDY    47  43  86 NE12G17   29.89S
LAGUARDIA APRT CLOUDY    48  45  89 NE13      29.86S
KENNEDY INTL   CLOUDY    49  45  86 NE18      29.85F
NEWARK/LIBERTY LGT RAIN  48  45  89 NE15      29.86S
BRNX BOT. GARD   N/A     46  43  87 N13       29.88F
TETERBORO      LGT RAIN  47  42  83 NE7G17    29.87R FOG
$$

NYZ177-179-078>081-010600-
LONG ISLAND NEW YORK

CITY           SKY/WX    TMP DP  RH WIND       PRES   REMARKS
FARMINGDALE    CLOUDY    49  44  83 NE14G24   29.84F
ISLIP          NOT AVBL
SHIRLEY        NOT AVBL
WESTHAMPTON    CLOUDY    51  43  74 NE16G25   29.85F
MONTAUK POINT    N/A     52  41  66 NE14G25   29.87F
$$

NYZ052-065-067-010600-
HUDSON VALLEY

CITY           SKY/WX    TMP DP  RH WIND       PRES   REMARKS
WHITE PLAINS   NOT AVBL
NEWBURGH       CLOUDY    46  39  76 E6G17     29.92S
MONTGOMERY     NOT AVBL
POUGHKEEPSIE   CLOUDY    48  37  65 NE9       29.91F
ALBANY         CLOUDY    45  34  65 NE8       29.97F
$$

NJZ001-105-106-008-010-013-015-019>022-104-010600-
NEW JERSEY

CITY           SKY/WX    TMP DP  RH WIND       PRES   REMARKS
NEWARK/LIBERTY LGT RAIN  48  45  89 NE15      29.86S
TETERBORO      LGT RAIN  47  42  83 NE7G17    29.87R FOG
CALDWELL       NOT AVBL
MORRISTOWN     CLOUDY    50  43  76 NE7       29.87S
SOMERVILLE     CLOUDY    50  43  77 N5        29.83F
SUSSEX         CLOUDY    50  40  68 NE13G18   29.88S
ANDOVER          N/A     47  38  71 NE7       29.87S
TRENTON        CLOUDY    50  42  74 NE9       29.81F
MILLVILLE      NOT AVBL
ATLANTIC CITY  CLOUDY    50  48  93 N8        29.75F
WRIGHTSTOWN    NOT AVBL
TOMS RIVER     CLOUDY    54  48  82 NE10G16   29.79F
BELMAR         CLOUDY    52  45  76 NE16G22   29.81F
$$

PAZ047>061-062-071-010600-
EASTERN PENNSYLVANIA

CITY           SKY/WX    TMP DP  RH WIND       PRES   REMARKS
PHILADELPHIA   NOT AVBL
ALLENTOWN      CLOUDY    48  38  68 NE6       29.85F
SCRANTON       NOT AVBL
$$

CTZ002-004>006-009-010-012-RIZ004-006-007-MAZ004-011-015-010600-
SOUTHERN NEW ENGLAND
 IN CT

CITY           SKY/WX    TMP DP  RH WIND       PRES   REMARKS
BRADLEY INTL   CLOUDY    46  38  73 N12       29.92F
HARTFORD       NOT AVBL
DANBURY        LGT RAIN  44  39  82 NE8       29.90F
WTRBRY/OXFORD  CLOUDY    43  36  75 NE10G16   29.91F
BRIDGEPORT     CLOUDY    48  42  80 NE15G21   29.88F
MERIDEN        NOT AVBL
NEW HAVEN      CLOUDY    48  42  80 N13       29.89F
CHESTER        NOT AVBL
GROTON         NOT AVBL
WILLIMANTIC    CLOUDY    47  37  68 NE9       29.91F

 IN RI

CITY           SKY/WX    TMP DP  RH WIND       PRES   REMARKS
PROVIDENCE     CLOUDY    48  36  63 NE13      29.91F
BLOCK ISLAND   CLOUDY    52  37  58 NE17G24   29.86F
WESTERLY       NOT AVBL

 IN MA

CITY           SKY/WX    TMP DP  RH WIND       PRES   REMARKS
BOSTON         NOT AVBL
WORCESTER      NOT AVBL
WESTFIELD      CLOUDY    44  41  89 N5        29.94F
PROVINCETOWN   CLOUDY    50  -2  11 NE20G28   29.92F
NANTUCKET      CLOUDY    52  43  71 NE16      29.86S
$$

ANZ330-335-338-340-345-350-353-355-010600-
COASTAL MARINE OBSERVATIONS


STATION/POSITION TIME  SKY/WX   TEMP    WIND        PRES    VSBY  WAVE
                                AIR SEA DIR/SP/G                  HT/PER
                 (UTC)          (F)     (DEG/KT/KT) (MB)    (MI)  (FT/S)
NY HARB ENTRANCE 0400            53 61   30/ 23/ 27 1009.5          5/ 5
4S FIRE IS       0500               62                N/A           6/ 7
20S FIRE ISLAND  0400            57 62   60/ 23/ 27 1008.5          7/ 6
23SW MTP         0400                                 N/A           9/ 6
HUDSON CANYON    0400            61 64   90/ 25/ 29 1006.1          8/ 7
EXECUTION ROCKS  0500            50 59   40/ 21/ 29   N/A
WESTERN LI SOUND 0400            49      40/ 17/ 23   N/A           3/ 5
CENTRAL LI SOUND 0400            51 61   50/ 17/ 23   N/A           3/ 5
EASTERN LI SOUND 0400            52 60   50/ 17/ 23   N/A
ROBBINS REEF     0400            50      50/ 23/ 27 1009.4
$$


>>>>>>>>>>>>>>>>>>>>>>>>>>>> KEY <<<<<<<<<<<<<<<<<<<<<<<<<<<
>                                                          <
>     SKY/WX - SKY CONDITION/PRESENT WEATHER               <
>     TMP    - TEMPERATURE IN FAHRENHEIT                   <
>     DP     - DEWPOINT IN FAHRENHEIT                      <
>     RH     - RELATIVE HUMIDITY IN PERCENT                <
>     WIND   - DIRECTION AND SPEED IN MPH                  <
>     PRES   - MEAN SEA LEVEL PRESSURE IN INCHES OF HG     <
>     WCI    - WIND CHILL INDEX                            <
>     VSB    - VISIBILITY IN MILES                         <
>     HX     - HEAT INDEX                                  <
>     TC     - TEMPERATURE IN CELSIUS                      <
>     VRB    - VARIABLE WIND DIRECTION                     <
>                                                          <
>>>>>>>>>>>>>>>>>>>>>>>>>>>> KEY <<<<<<<<<<<<<<<<<<<<<<<<<<<





USA.gov is the U.S. government's official web portal to all federal, state and local government web resources and services.